Location: Chiroubles
(46.1812°N, 4.6660°E)
Time: 19:05:18
(UTC+00:00)

SL-16 R/B - Pass Details

Date: 15 August 2020
Orbit: 843 x 845 km, 71.0° (Epoch: 24 September)

Event Time Altitude Azimuth Distance (km) Brightness Sun altitude
Rises 21:38:14 0° 325° (NW) 3,415 6.8 -23.6°
Reaches altitude 10° 21:40:56 10° 316° (NW) 2,475 5.7 -23.9°
Maximum altitude 21:45:50 31° 256° (WSW) 1,444 3.5 -24.3°
Enters shadow 21:47:53 24° 220° (SW) 1,668 3.5 -24.5°
